contact:dominique.lefevre@mio.osupytheas.fr, maurice.libes@osupytheas.fr, didier.mallarino@osupytheas.fr
Project:EMSO http://www.emso-fr.org/EMSO-France
Depth: 2436.0 m
Title:EMSO Ligure Ouest : Data MII capteur CSTAR
DateTime,Latitude,Longitude,Instrument_Serial,Reference_Counts,Signal_Counts,Corrected_Signal_raw_counts,Calculated_Beam_c_inverse_meters,Internal_thermistor_counts
DateTime,Latitude,Longitude,Instrument_Serial,Reference_Counts,Signal_Counts,Corrected_Signal_raw_counts,Calculated_Beam_c_inverse_meters,Internal_thermistor_counts
2019-11-30T00:01:31,42.805,6.029,CST-1368DR,7260,10168,15289,0.085,551
2019-11-30T00:04:32,42.805,6.029,CST-1368DR,7260,10170,15292,0.084,551
2019-11-30T00:07:34,42.805,6.029,CST-1368DR,7260,10170,15292,0.084,551
2019-11-30T00:10:36,42.805,6.029,CST-1368DR,7260,10168,15290,0.084,551
2019-11-30T00:13:37,42.805,6.029,CST-1368DR,7260,10170,15293,0.084,551
2019-11-30T00:16:39,42.805,6.029,CST-1368DR,7260,10163,15283,0.086,551
2019-11-30T00:19:41,42.805,6.029,CST-1368DR,7260,10168,15289,0.085,551
2019-11-30T00:22:42,42.805,6.029,CST-1368DR,7260,10167,15289,0.085,551
2019-11-30T00:25:44,42.805,6.029,CST-1368DR,7259,10167,15291,0.084,551
2019-11-30T00:28:45,42.805,6.029,CST-1368DR,7259,10166,15289,0.085,551
2019-11-30T00:31:47,42.805,6.029,CST-1368DR,7259,10169,15293,0.084,551
2019-11-30T00:34:49,42.805,6.029,CST-1368DR,7259,10168,15291,0.084,551
2019-11-30T00:37:50,42.805,6.029,CST-1368DR,7259,10166,15289,0.085,551
2019-11-30T00:40:52,42.805,6.029,CST-1368DR,7259,10163,15285,0.086,551
2019-11-30T00:43:54,42.805,6.029,CST-1368DR,7259,10169,15293,0.084,551
2019-11-30T00:46:55,42.805,6.029,CST-1368DR,7259,10170,15295,0.083,551
2019-11-30T00:49:57,42.805,6.029,CST-1368DR,7259,10169,15294,0.083,551
2019-11-30T00:52:58,42.805,6.029,CST-1368DR,7260,10170,15292,0.084,551
2019-11-30T00:56:00,42.805,6.029,CST-1368DR,7259,10169,15293,0.084,551
2019-11-30T00:59:02,42.805,6.029,CST-1368DR,7259,10169,15293,0.084,551
2019-11-30T01:02:03,42.805,6.029,CST-1368DR,7259,10169,15293,0.084,551
2019-11-30T01:05:05,42.805,6.029,CST-1368DR,7259,10168,15292,0.084,551
2019-11-30T01:08:07,42.805,6.029,CST-1368DR,7259,10167,15291,0.084,551
2019-11-30T01:11:08,42.805,6.029,CST-1368DR,7259,10168,15292,0.084,551
2019-11-30T01:14:10,42.805,6.029,CST-1368DR,7259,10167,15290,0.084,550
2019-11-30T01:17:11,42.805,6.029,CST-1368DR,7259,10168,15292,0.084,551
2019-11-30T01:20:13,42.805,6.029,CST-1368DR,7259,10166,15290,0.084,551
2019-11-30T01:25:06,42.805,6.029,CST-1368DR,7259,10169,15293,0.084,551
2019-11-30T01:28:08,42.805,6.029,CST-1368DR,7259,10159,15279,0.087,551
2019-11-30T01:31:10,42.805,6.029,CST-1368DR,7259,10164,15286,0.085,551
2019-11-30T01:34:11,42.805,6.029,CST-1368DR,7259,10166,15289,0.085,551
2019-11-30T01:37:13,42.805,6.029,CST-1368DR,7259,10168,15292,0.084,551
2019-11-30T01:40:15,42.805,6.029,CST-1368DR,7259,10167,15290,0.084,551
2019-11-30T01:43:17,42.805,6.029,CST-1368DR,7259,10169,15294,0.083,551
2019-11-30T01:46:18,42.805,6.029,CST-1368DR,7259,10167,15291,0.084,551
2019-11-30T01:49:20,42.805,6.029,CST-1368DR,7259,10167,15290,0.084,551
2019-11-30T01:52:22,42.805,6.029,CST-1368DR,7259,10168,15292,0.084,551
2019-11-30T01:55:23,42.805,6.029,CST-1368DR,7259,10162,15283,0.086,551
2019-11-30T01:58:25,42.805,6.029,CST-1368DR,7259,10168,15291,0.084,551
2019-11-30T02:01:26,42.805,6.029,CST-1368DR,7259,10165,15288,0.085,550
2019-11-30T02:04:28,42.805,6.029,CST-1368DR,7259,10165,15288,0.085,551
2019-11-30T02:07:30,42.805,6.029,CST-1368DR,7259,10168,15292,0.084,551
2019-11-30T02:10:31,42.805,6.029,CST-1368DR,7259,10167,15291,0.084,551
2019-11-30T02:13:33,42.805,6.029,CST-1368DR,7259,10167,15290,0.084,551
2019-11-30T02:16:35,42.805,6.029,CST-1368DR,7259,10166,15290,0.084,551
2019-11-30T02:19:36,42.805,6.029,CST-1368DR,7259,10167,15291,0.084,551
2019-11-30T02:22:38,42.805,6.029,CST-1368DR,7259,10168,15292,0.084,551
2019-11-30T02:25:39,42.805,6.029,CST-1368DR,7259,10167,15291,0.084,551
2019-11-30T02:28:41,42.805,6.029,CST-1368DR,7259,10165,15288,0.085,551
2019-11-30T02:31:43,42.805,6.029,CST-1368DR,7259,10167,15290,0.084,551
2019-11-30T02:34:44,42.805,6.029,CST-1368DR,7259,10169,15293,0.084,551
2019-11-30T02:37:46,42.805,6.029,CST-1368DR,7259,10169,15294,0.083,551
2019-11-30T02:40:48,42.805,6.029,CST-1368DR,7259,10168,15292,0.084,551
2019-11-30T02:43:49,42.805,6.029,CST-1368DR,7259,10167,15291,0.084,551
2019-11-30T02:46:51,42.805,6.029,CST-1368DR,7259,10166,15290,0.084,550
2019-11-30T02:49:52,42.805,6.029,CST-1368DR,7259,10166,15288,0.085,551
2019-11-30T02:52:54,42.805,6.029,CST-1368DR,7259,10170,15295,0.083,551
2019-11-30T02:55:56,42.805,6.029,CST-1368DR,7259,10166,15290,0.084,551
2019-11-30T02:58:57,42.805,6.029,CST-1368DR,7259,10169,15294,0.083,550
2019-11-30T03:01:59,42.805,6.029,CST-1368DR,7259,10163,15285,0.086,551
2019-11-30T03:05:00,42.805,6.029,CST-1368DR,7259,10169,15294,0.083,551
2019-11-30T03:08:02,42.805,6.029,CST-1368DR,7259,10163,15284,0.086,551
2019-11-30T03:11:04,42.805,6.029,CST-1368DR,7259,10166,15290,0.084,551
2019-11-30T03:14:05,42.805,6.029,CST-1368DR,7259,10166,15290,0.084,551
2019-11-30T03:17:07,42.805,6.029,CST-1368DR,7259,10167,15291,0.084,551
2019-11-30T03:20:09,42.805,6.029,CST-1368DR,7259,10169,15294,0.083,551
2019-11-30T03:23:11,42.805,6.029,CST-1368DR,7259,10169,15294,0.083,551
2019-11-30T03:26:12,42.805,6.029,CST-1368DR,7259,10168,15292,0.084,551
2019-11-30T03:29:14,42.805,6.029,CST-1368DR,7259,10170,15294,0.083,551
2019-11-30T03:32:16,42.805,6.029,CST-1368DR,7259,10167,15291,0.084,551
2019-11-30T03:35:17,42.805,6.029,CST-1368DR,7259,10166,15288,0.085,551
2019-11-30T03:38:19,42.805,6.029,CST-1368DR,7259,10168,15292,0.084,551
2019-11-30T03:41:20,42.805,6.029,CST-1368DR,7259,10167,15291,0.084,551
2019-11-30T03:44:22,42.805,6.029,CST-1368DR,7259,10168,15292,0.084,550
2019-11-30T03:47:24,42.805,6.029,CST-1368DR,7258,10166,15290,0.084,551
2019-11-30T03:50:25,42.805,6.029,CST-1368DR,7258,10169,15295,0.083,551
2019-11-30T03:53:27,42.805,6.029,CST-1368DR,7259,10166,15289,0.085,551
2019-11-30T03:56:29,42.805,6.029,CST-1368DR,7259,10167,15291,0.084,551
2019-11-30T03:59:30,42.805,6.029,CST-1368DR,7258,10165,15290,0.084,551
2019-11-30T04:02:32,42.805,6.029,CST-1368DR,7258,10167,15292,0.084,551
2019-11-30T04:05:33,42.805,6.029,CST-1368DR,7258,10168,15293,0.084,551
2019-11-30T04:08:35,42.805,6.029,CST-1368DR,7258,10169,15295,0.083,551
2019-11-30T04:11:37,42.805,6.029,CST-1368DR,7258,10168,15293,0.084,551
2019-11-30T04:14:38,42.805,6.029,CST-1368DR,7258,10168,15293,0.084,551
2019-11-30T04:17:40,42.805,6.029,CST-1368DR,7258,10168,15294,0.083,551
2019-11-30T04:20:42,42.805,6.029,CST-1368DR,7258,10168,15293,0.084,551
2019-11-30T04:23:43,42.805,6.029,CST-1368DR,7258,10168,15293,0.084,551
2019-11-30T04:26:45,42.805,6.029,CST-1368DR,7258,10168,15294,0.083,551
2019-11-30T04:29:46,42.805,6.029,CST-1368DR,7258,10167,15293,0.084,551
2019-11-30T04:32:48,42.805,6.029,CST-1368DR,7258,10167,15292,0.084,551
2019-11-30T04:35:50,42.805,6.029,CST-1368DR,7258,10167,15293,0.084,551
2019-11-30T04:38:51,42.805,6.029,CST-1368DR,7258,10167,15293,0.084,551
2019-11-30T04:41:53,42.805,6.029,CST-1368DR,7258,10166,15291,0.084,551
2019-11-30T04:44:55,42.805,6.029,CST-1368DR,7258,10166,15292,0.084,551
2019-11-30T04:47:56,42.805,6.029,CST-1368DR,7258,10166,15291,0.084,551
2019-11-30T04:50:58,42.805,6.029,CST-1368DR,7258,10165,15289,0.085,551
2019-11-30T04:53:59,42.805,6.029,CST-1368DR,7258,10166,15292,0.084,551
2019-11-30T04:57:01,42.805,6.029,CST-1368DR,7258,10166,15292,0.084,551
2019-11-30T05:00:03,42.805,6.029,CST-1368DR,7258,10167,15292,0.084,551
2019-11-30T05:03:04,42.805,6.029,CST-1368DR,7258,10166,15292,0.084,551
2019-11-30T05:06:06,42.805,6.029,CST-1368DR,7258,10167,15292,0.084,551
2019-11-30T05:09:08,42.805,6.029,CST-1368DR,7258,10165,15290,0.084,551
2019-11-30T05:12:09,42.805,6.029,CST-1368DR,7258,10158,15280,0.087,551
2019-11-30T05:15:11,42.805,6.029,CST-1368DR,7258,10166,15292,0.084,551
2019-11-30T05:18:13,42.805,6.029,CST-1368DR,7258,10165,15289,0.085,551
2019-11-30T05:21:14,42.805,6.029,CST-1368DR,7258,10167,15293,0.084,551
2019-11-30T05:24:16,42.805,6.029,CST-1368DR,7258,10167,15293,0.084,550
2019-11-30T05:27:18,42.805,6.029,CST-1368DR,7258,10164,15289,0.085,551
2019-11-30T05:30:19,42.805,6.029,CST-1368DR,7258,10166,15292,0.084,551
2019-11-30T05:33:21,42.805,6.029,CST-1368DR,7258,10167,15292,0.084,551
2019-11-30T05:36:23,42.805,6.029,CST-1368DR,7258,10167,15292,0.084,551
2019-11-30T05:39:24,42.805,6.029,CST-1368DR,7258,10167,15293,0.084,551
2019-11-30T05:42:26,42.805,6.029,CST-1368DR,7258,10166,15291,0.084,551
2019-11-30T05:45:27,42.805,6.029,CST-1368DR,7258,10167,15292,0.084,551
2019-11-30T05:48:29,42.805,6.029,CST-1368DR,7258,10167,15293,0.084,551
2019-11-30T05:51:31,42.805,6.029,CST-1368DR,7258,10167,15292,0.084,551
2019-11-30T05:54:32,42.805,6.029,CST-1368DR,7258,10164,15288,0.085,551
2019-11-30T05:57:34,42.805,6.029,CST-1368DR,7258,10166,15291,0.084,551
2019-11-30T06:00:36,42.805,6.029,CST-1368DR,7258,10167,15292,0.084,551
2019-11-30T06:03:37,42.805,6.029,CST-1368DR,7258,10164,15287,0.085,551
2019-11-30T06:06:39,42.805,6.029,CST-1368DR,7258,10160,15282,0.086,551
2019-11-30T06:09:40,42.805,6.029,CST-1368DR,7258,10165,15290,0.084,551
2019-11-30T06:12:42,42.805,6.029,CST-1368DR,7258,10167,15292,0.084,551
2019-11-30T06:15:44,42.805,6.029,CST-1368DR,7258,10166,15292,0.084,551
2019-11-30T06:18:45,42.805,6.029,CST-1368DR,7258,10165,15290,0.084,551
2019-11-30T06:21:47,42.805,6.029,CST-1368DR,7258,10165,15290,0.084,551
2019-11-30T06:24:49,42.805,6.029,CST-1368DR,7258,10165,15290,0.084,551
2019-11-30T06:27:50,42.805,6.029,CST-1368DR,7258,10167,15292,0.084,551
2019-11-30T06:30:52,42.805,6.029,CST-1368DR,7258,10167,15292,0.084,551
2019-11-30T06:33:53,42.805,6.029,CST-1368DR,7258,10166,15291,0.084,551
2019-11-30T06:36:55,42.805,6.029,CST-1368DR,7258,10166,15290,0.084,550
2019-11-30T06:39:57,42.805,6.029,CST-1368DR,7258,10163,15286,0.085,551
2019-11-30T06:42:58,42.805,6.029,CST-1368DR,7258,10165,15289,0.085,551
2019-11-30T06:46:00,42.805,6.029,CST-1368DR,7258,10165,15289,0.085,551
2019-11-30T06:49:02,42.805,6.029,CST-1368DR,7258,10167,15293,0.084,551
2019-11-30T06:52:03,42.805,6.029,CST-1368DR,7258,10165,15290,0.084,551
2019-11-30T06:55:05,42.805,6.029,CST-1368DR,7258,10168,15294,0.083,551
2019-11-30T06:58:07,42.805,6.029,CST-1368DR,7258,10166,15290,0.084,551
2019-11-30T07:01:08,42.805,6.029,CST-1368DR,7258,10164,15288,0.085,551
2019-11-30T07:04:10,42.805,6.029,CST-1368DR,7258,10166,15291,0.084,551
2019-11-30T07:07:12,42.805,6.029,CST-1368DR,7258,10167,15292,0.084,551
2019-11-30T07:10:13,42.805,6.029,CST-1368DR,7258,10167,15293,0.084,551
2019-11-30T07:13:15,42.805,6.029,CST-1368DR,7257,10167,15294,0.083,551
2019-11-30T07:16:16,42.805,6.029,CST-1368DR,7257,10166,15292,0.084,551
2019-11-30T07:19:18,42.805,6.029,CST-1368DR,7258,10167,15293,0.084,550
2019-11-30T07:22:20,42.805,6.029,CST-1368DR,7258,10165,15290,0.084,551
2019-11-30T07:25:22,42.805,6.029,CST-1368DR,7257,10165,15291,0.084,551
2019-11-30T07:28:23,42.805,6.029,CST-1368DR,7257,10163,15289,0.085,551
2019-11-30T07:31:25,42.805,6.029,CST-1368DR,7258,10167,15292,0.084,550
2019-11-30T07:34:26,42.805,6.029,CST-1368DR,7257,10163,15288,0.085,551
2019-11-30T07:37:29,42.805,6.029,CST-1368DR,7257,10167,15295,0.083,551
2019-11-30T07:40:31,42.805,6.029,CST-1368DR,7258,10166,15291,0.084,551
2019-11-30T07:43:32,42.805,6.029,CST-1368DR,7257,10165,15292,0.084,551
2019-11-30T07:46:34,42.805,6.029,CST-1368DR,7257,10166,15292,0.084,551
2019-11-30T07:49:36,42.805,6.029,CST-1368DR,7257,10166,15293,0.084,551
2019-11-30T07:52:37,42.805,6.029,CST-1368DR,7257,10166,15293,0.084,551
2019-11-30T07:55:39,42.805,6.029,CST-1368DR,7257,10164,15290,0.084,551
2019-11-30T07:58:40,42.805,6.029,CST-1368DR,7257,10167,15295,0.083,551
2019-11-30T08:01:42,42.805,6.029,CST-1368DR,7257,10166,15294,0.083,551
2019-11-30T08:04:44,42.805,6.029,CST-1368DR,7257,10167,15295,0.083,551
2019-11-30T08:07:45,42.805,6.029,CST-1368DR,7257,10163,15288,0.085,551
2019-11-30T08:10:47,42.805,6.029,CST-1368DR,7257,10165,15292,0.084,551
2019-11-30T08:13:49,42.805,6.029,CST-1368DR,7257,10164,15290,0.084,551
2019-11-30T08:16:50,42.805,6.029,CST-1368DR,7257,10165,15291,0.084,551
2019-11-30T08:19:52,42.805,6.029,CST-1368DR,7257,10163,15289,0.085,551
2019-11-30T08:22:53,42.805,6.029,CST-1368DR,7257,10164,15290,0.084,551
2019-11-30T08:25:55,42.805,6.029,CST-1368DR,7257,10166,15292,0.084,551
2019-11-30T08:28:57,42.805,6.029,CST-1368DR,7257,10166,15294,0.083,551
2019-11-30T08:31:58,42.805,6.029,CST-1368DR,7257,10164,15290,0.084,550
2019-11-30T08:35:00,42.805,6.029,CST-1368DR,7257,10165,15292,0.084,551
2019-11-30T08:38:02,42.805,6.029,CST-1368DR,7257,10164,15290,0.084,551
2019-11-30T08:41:03,42.805,6.029,CST-1368DR,7257,10164,15290,0.084,551
2019-11-30T08:44:05,42.805,6.029,CST-1368DR,7257,10166,15294,0.083,550
2019-11-30T08:47:06,42.805,6.029,CST-1368DR,7257,10166,15292,0.084,551
2019-11-30T08:50:08,42.805,6.029,CST-1368DR,7257,10165,15292,0.084,551
2019-11-30T08:53:10,42.805,6.029,CST-1368DR,7257,10164,15290,0.084,551
2019-11-30T08:56:11,42.805,6.029,CST-1368DR,7257,10164,15290,0.084,551
2019-11-30T08:59:13,42.805,6.029,CST-1368DR,7257,10166,15293,0.084,551
2019-11-30T09:02:15,42.805,6.029,CST-1368DR,7257,10163,15289,0.085,551
2019-11-30T09:05:16,42.805,6.029,CST-1368DR,7257,10164,15290,0.084,551
2019-11-30T09:08:18,42.805,6.029,CST-1368DR,7257,10163,15288,0.085,551
2019-11-30T09:11:19,42.805,6.029,CST-1368DR,7257,10159,15282,0.086,551
2019-11-30T09:14:21,42.805,6.029,CST-1368DR,7257,10164,15290,0.084,550
2019-11-30T09:17:23,42.805,6.029,CST-1368DR,7257,10166,15292,0.084,550
2019-11-30T09:20:25,42.805,6.029,CST-1368DR,7257,10163,15289,0.085,551
2019-11-30T09:23:26,42.805,6.029,CST-1368DR,7257,10166,15293,0.084,551
2019-11-30T09:26:28,42.805,6.029,CST-1368DR,7257,10163,15288,0.085,551
2019-11-30T09:29:29,42.805,6.029,CST-1368DR,7257,10163,15288,0.085,551
2019-11-30T09:32:31,42.805,6.029,CST-1368DR,7257,10160,15284,0.086,551
2019-11-30T09:35:33,42.805,6.029,CST-1368DR,7257,10161,15286,0.085,551
2019-11-30T09:38:34,42.805,6.029,CST-1368DR,7257,10163,15289,0.085,551
2019-11-30T09:41:36,42.805,6.029,CST-1368DR,7257,10163,15289,0.085,551
2019-11-30T09:44:38,42.805,6.029,CST-1368DR,7257,10163,15289,0.085,551
2019-11-30T09:47:39,42.805,6.029,CST-1368DR,7257,10164,15290,0.084,551
2019-11-30T09:50:41,42.805,6.029,CST-1368DR,7257,10164,15289,0.085,550
2019-11-30T09:53:42,42.805,6.029,CST-1368DR,7257,10163,15289,0.085,551
2019-11-30T09:56:44,42.805,6.029,CST-1368DR,7257,10163,15289,0.085,551
2019-11-30T09:59:46,42.805,6.029,CST-1368DR,7257,10163,15288,0.085,551
2019-11-30T10:02:47,42.805,6.029,CST-1368DR,7257,10165,15291,0.084,551
2019-11-30T10:05:49,42.805,6.029,CST-1368DR,7257,10161,15286,0.085,550
2019-11-30T10:08:51,42.805,6.029,CST-1368DR,7257,10163,15289,0.085,551
2019-11-30T10:11:52,42.805,6.029,CST-1368DR,7257,10164,15289,0.085,551
2019-11-30T10:14:54,42.805,6.029,CST-1368DR,7257,10162,15287,0.085,551
2019-11-30T10:17:55,42.805,6.029,CST-1368DR,7257,10162,15287,0.085,551
2019-11-30T10:20:57,42.805,6.029,CST-1368DR,7257,10161,15286,0.085,551
2019-11-30T10:23:59,42.805,6.029,CST-1368DR,7257,10162,15287,0.085,550
2019-11-30T10:27:00,42.805,6.029,CST-1368DR,7257,10165,15291,0.084,551
2019-11-30T10:30:02,42.805,6.029,CST-1368DR,7257,10163,15288,0.085,551
2019-11-30T10:33:04,42.805,6.029,CST-1368DR,7257,10164,15290,0.084,551
2019-11-30T10:36:05,42.805,6.029,CST-1368DR,7256,10163,15291,0.084,551
2019-11-30T10:39:07,42.805,6.029,CST-1368DR,7256,10164,15291,0.084,551
2019-11-30T10:42:08,42.805,6.029,CST-1368DR,7256,10162,15289,0.085,551
2019-11-30T10:45:10,42.805,6.029,CST-1368DR,7256,10161,15288,0.085,551
2019-11-30T10:48:12,42.805,6.029,CST-1368DR,7256,10164,15291,0.084,551
2019-11-30T10:51:13,42.805,6.029,CST-1368DR,7256,10163,15291,0.084,551
2019-11-30T10:54:15,42.805,6.029,CST-1368DR,7256,10164,15292,0.084,551
2019-11-30T10:57:17,42.805,6.029,CST-1368DR,7256,10163,15290,0.084,551
2019-11-30T11:00:18,42.805,6.029,CST-1368DR,7256,10161,15287,0.085,551
2019-11-30T11:03:20,42.805,6.029,CST-1368DR,7256,10161,15288,0.085,551
2019-11-30T11:06:21,42.805,6.029,CST-1368DR,7256,10161,15288,0.085,551
2019-11-30T11:09:23,42.805,6.029,CST-1368DR,7256,10164,15291,0.084,551
2019-11-30T11:12:25,42.805,6.029,CST-1368DR,7256,10160,15286,0.085,551
2019-11-30T11:15:26,42.805,6.029,CST-1368DR,7256,10164,15291,0.084,550
2019-11-30T11:18:28,42.805,6.029,CST-1368DR,7256,10162,15289,0.085,551
2019-11-30T11:21:30,42.805,6.029,CST-1368DR,7256,10166,15294,0.083,551
2019-11-30T11:24:31,42.805,6.029,CST-1368DR,7256,10162,15289,0.085,551
2019-11-30T11:27:33,42.805,6.029,CST-1368DR,7256,10160,15286,0.085,550
2019-11-30T11:30:34,42.805,6.029,CST-1368DR,7256,10162,15289,0.085,551
2019-11-30T11:33:36,42.805,6.029,CST-1368DR,7256,10164,15292,0.084,551
2019-11-30T11:36:38,42.805,6.029,CST-1368DR,7256,10164,15292,0.084,551
2019-11-30T11:39:39,42.805,6.029,CST-1368DR,7256,10164,15292,0.084,551
2019-11-30T11:42:41,42.805,6.029,CST-1368DR,7256,10164,15292,0.084,551
2019-11-30T11:45:43,42.805,6.029,CST-1368DR,7256,10157,15281,0.087,551
2019-11-30T11:48:44,42.805,6.029,CST-1368DR,7256,10160,15286,0.085,551
2019-11-30T11:51:46,42.805,6.029,CST-1368DR,7256,10163,15290,0.084,551
2019-11-30T11:54:47,42.805,6.029,CST-1368DR,7256,10164,15292,0.084,551
2019-11-30T11:57:49,42.805,6.029,CST-1368DR,7256,10163,15291,0.084,551
2019-11-30T12:00:51,42.805,6.029,CST-1368DR,7256,10163,15291,0.084,551
2019-11-30T12:03:52,42.805,6.029,CST-1368DR,7256,10161,15287,0.085,551
2019-11-30T12:06:54,42.805,6.029,CST-1368DR,7256,10165,15293,0.084,551
2019-11-30T12:09:55,42.805,6.029,CST-1368DR,7256,10163,15290,0.084,551
2019-11-30T12:12:57,42.805,6.029,CST-1368DR,7256,10163,15290,0.084,551
2019-11-30T12:15:59,42.805,6.029,CST-1368DR,7256,10163,15291,0.084,551
2019-11-30T12:19:00,42.805,6.029,CST-1368DR,7256,10163,15290,0.084,551
2019-11-30T12:22:02,42.805,6.029,CST-1368DR,7256,10163,15291,0.084,551
2019-11-30T12:25:04,42.805,6.029,CST-1368DR,7256,10163,15291,0.084,551
2019-11-30T12:28:05,42.805,6.029,CST-1368DR,7256,10163,15290,0.084,551
2019-11-30T12:31:07,42.805,6.029,CST-1368DR,7256,10163,15291,0.084,551
2019-11-30T12:34:08,42.805,6.029,CST-1368DR,7256,10163,15290,0.084,551
2019-11-30T12:37:10,42.805,6.029,CST-1368DR,7256,10159,15284,0.086,551
2019-11-30T12:40:12,42.805,6.029,CST-1368DR,7256,10163,15291,0.084,551
2019-11-30T12:43:13,42.805,6.029,CST-1368DR,7256,10163,15291,0.084,551
2019-11-30T12:46:15,42.805,6.029,CST-1368DR,7256,10163,15291,0.084,551
2019-11-30T12:49:17,42.805,6.029,CST-1368DR,7256,10161,15288,0.085,551
2019-11-30T12:52:18,42.805,6.029,CST-1368DR,7256,10162,15289,0.085,551
2019-11-30T12:55:20,42.805,6.029,CST-1368DR,7256,10164,15291,0.084,551
2019-11-30T12:58:22,42.805,6.029,CST-1368DR,7256,10162,15289,0.085,551
2019-11-30T13:01:23,42.805,6.029,CST-1368DR,7256,10160,15286,0.085,551
2019-11-30T13:04:25,42.805,6.029,CST-1368DR,7256,10161,15288,0.085,551
2019-11-30T13:07:26,42.805,6.029,CST-1368DR,7256,10160,15285,0.086,551
2019-11-30T13:10:28,42.805,6.029,CST-1368DR,7256,10162,15289,0.085,551
2019-11-30T13:13:30,42.805,6.029,CST-1368DR,7256,10162,15289,0.085,551
2019-11-30T13:16:31,42.805,6.029,CST-1368DR,7256,10162,15289,0.085,550
2019-11-30T13:19:33,42.805,6.029,CST-1368DR,7255,10162,15291,0.084,551
2019-11-30T13:22:35,42.805,6.029,CST-1368DR,7255,10163,15292,0.084,551
2019-11-30T13:25:36,42.805,6.029,CST-1368DR,7256,10164,15292,0.084,551
2019-11-30T13:28:38,42.805,6.029,CST-1368DR,7256,10164,15292,0.084,551
2019-11-30T13:31:40,42.805,6.029,CST-1368DR,7255,10162,15291,0.084,551
2019-11-30T13:34:41,42.805,6.029,CST-1368DR,7256,10163,15291,0.084,551
2019-11-30T13:37:43,42.805,6.029,CST-1368DR,7255,10164,15294,0.083,551
2019-11-30T13:40:44,42.805,6.029,CST-1368DR,7255,10162,15291,0.084,551
2019-11-30T13:43:46,42.805,6.029,CST-1368DR,7255,10162,15291,0.084,551
2019-11-30T13:46:48,42.805,6.029,CST-1368DR,7255,10163,15292,0.084,551
2019-11-30T13:49:49,42.805,6.029,CST-1368DR,7255,10163,15292,0.084,551
2019-11-30T13:52:51,42.805,6.029,CST-1368DR,7255,10165,15295,0.083,551
2019-11-30T13:55:53,42.805,6.029,CST-1368DR,7255,10162,15291,0.084,551
2019-11-30T13:58:54,42.805,6.029,CST-1368DR,7255,10161,15290,0.084,551
2019-11-30T14:01:56,42.805,6.029,CST-1368DR,7255,10163,15293,0.084,550
2019-11-30T14:04:58,42.805,6.029,CST-1368DR,7255,10163,15292,0.084,551
2019-11-30T14:07:59,42.805,6.029,CST-1368DR,7255,10164,15294,0.083,551
2019-11-30T14:11:01,42.805,6.029,CST-1368DR,7255,10163,15292,0.084,551
2019-11-30T14:14:03,42.805,6.029,CST-1368DR,7255,10165,15296,0.083,551
2019-11-30T14:17:04,42.805,6.029,CST-1368DR,7255,10164,15293,0.084,551
2019-11-30T14:20:06,42.805,6.029,CST-1368DR,7255,10155,15281,0.087,551
2019-11-30T14:23:07,42.805,6.029,CST-1368DR,7255,10160,15288,0.085,551
2019-11-30T14:26:09,42.805,6.029,CST-1368DR,7255,10163,15293,0.084,551
2019-11-30T14:29:11,42.805,6.029,CST-1368DR,7255,10164,15294,0.083,551
2019-11-30T14:32:12,42.805,6.029,CST-1368DR,7255,10162,15291,0.084,551
2019-11-30T14:35:14,42.805,6.029,CST-1368DR,7255,10160,15287,0.085,550
2019-11-30T14:38:16,42.805,6.029,CST-1368DR,7255,10164,15293,0.084,551
2019-11-30T14:41:17,42.805,6.029,CST-1368DR,7255,10163,15292,0.084,551
2019-11-30T14:44:19,42.805,6.029,CST-1368DR,7255,10161,15290,0.084,551
2019-11-30T14:47:21,42.805,6.029,CST-1368DR,7255,10163,15292,0.084,551
2019-11-30T14:50:22,42.805,6.029,CST-1368DR,7255,10161,15289,0.085,551
2019-11-30T14:53:24,42.805,6.029,CST-1368DR,7255,10163,15292,0.084,550
2019-11-30T14:56:25,42.805,6.029,CST-1368DR,7255,10162,15291,0.084,551
2019-11-30T14:59:27,42.805,6.029,CST-1368DR,7255,10161,15289,0.085,550
2019-11-30T15:02:29,42.805,6.029,CST-1368DR,7255,10162,15291,0.084,551
2019-11-30T15:05:30,42.805,6.029,CST-1368DR,7255,10163,15293,0.084,551
2019-11-30T15:08:32,42.805,6.029,CST-1368DR,7255,10163,15293,0.084,551
2019-11-30T15:11:34,42.805,6.029,CST-1368DR,7255,10163,15293,0.084,551
2019-11-30T15:14:35,42.805,6.029,CST-1368DR,7255,10163,15292,0.084,551
2019-11-30T15:17:37,42.805,6.029,CST-1368DR,7255,10164,15294,0.083,551
2019-11-30T15:20:38,42.805,6.029,CST-1368DR,7255,10161,15289,0.085,551
2019-11-30T15:23:40,42.805,6.029,CST-1368DR,7255,10165,15295,0.083,551
2019-11-30T15:26:42,42.805,6.029,CST-1368DR,7255,10163,15293,0.084,551
2019-11-30T15:29:43,42.805,6.029,CST-1368DR,7255,10164,15293,0.084,551
2019-11-30T15:32:45,42.805,6.029,CST-1368DR,7255,10164,15294,0.083,551
2019-11-30T15:35:46,42.805,6.029,CST-1368DR,7255,10163,15293,0.084,551
2019-11-30T15:38:48,42.805,6.029,CST-1368DR,7255,10160,15287,0.085,551
2019-11-30T15:41:50,42.805,6.029,CST-1368DR,7255,10163,15293,0.084,551
2019-11-30T15:44:51,42.805,6.029,CST-1368DR,7255,10163,15292,0.084,551
2019-11-30T15:47:53,42.805,6.029,CST-1368DR,7255,10164,15293,0.084,551
2019-11-30T15:50:55,42.805,6.029,CST-1368DR,7255,10163,15293,0.084,551
2019-11-30T15:53:56,42.805,6.029,CST-1368DR,7255,10164,15294,0.083,551
2019-11-30T15:56:58,42.805,6.029,CST-1368DR,7255,10163,15292,0.084,551
2019-11-30T15:59:59,42.805,6.029,CST-1368DR,7255,10163,15292,0.084,550
2019-11-30T16:03:01,42.805,6.029,CST-1368DR,7255,10164,15293,0.084,551
2019-11-30T16:06:03,42.805,6.029,CST-1368DR,7255,10165,15295,0.083,551
2019-11-30T16:09:04,42.805,6.029,CST-1368DR,7255,10164,15294,0.083,551
2019-11-30T16:12:06,42.805,6.029,CST-1368DR,7255,10164,15294,0.083,551
2019-11-30T16:15:08,42.805,6.029,CST-1368DR,7255,10164,15294,0.083,551
2019-11-30T16:18:09,42.805,6.029,CST-1368DR,7255,10163,15292,0.084,551
2019-11-30T16:21:11,42.805,6.029,CST-1368DR,7255,10159,15287,0.085,551
2019-11-30T16:24:13,42.805,6.029,CST-1368DR,7255,10163,15292,0.084,551
2019-11-30T16:27:14,42.805,6.029,CST-1368DR,7255,10163,15293,0.084,551
2019-11-30T16:30:16,42.805,6.029,CST-1368DR,7255,10162,15291,0.084,551
2019-11-30T16:33:17,42.805,6.029,CST-1368DR,7255,10163,15292,0.084,551
2019-11-30T16:36:19,42.805,6.029,CST-1368DR,7255,10161,15289,0.085,551
2019-11-30T16:39:21,42.805,6.029,CST-1368DR,7255,10156,15281,0.087,551